[keps] orb08024.amsat
Ray Hoad
r.hoad at att.net
Thu Jan 24 20:43:33 PST 2008
SB KEPS @ AMSAT $ORB08024.O
Orbital Elements 08024.OSCAR
HR AMSAT ORBITAL ELEMENTS FOR OSCAR SATELLITES
FROM WA5QGD FORT WORTH,TX January 24, 2008
Send Subscribe/unsubscribe to KEPS at
http://www.amsat.org/mailman/listinfo/keps
BID: ORB08024.O
TO ALL RADIO AMATEURS BT
Satellite: AO-07
Catalog number: 07530
Epoch time: 08024.04584029
Element set: 86
Inclination: 101.4871 deg
RA of node: 060.2997 deg
Eccentricity: 0.0011943
Arg of perigee: 184.9644 deg
Mean anomaly: 175.1306 deg
Mean motion: 12.53573275 rev/day
Decay rate: -2.7e-07 rev/day^2
Epoch rev: 51879
Checksum: 305
Satellite: AO-10
Catalog number: 14129
Epoch time: 08022.10031558
Element set: 0464
Inclination: 025.9369 deg
RA of node: 234.4013 deg
Eccentricity: 0.6036913
Arg of perigee: 092.1624 deg
Mean anomaly: 333.5762 deg
Mean motion: 02.05872801 rev/day
Decay rate: -2.70e-06 rev/day^2
Epoch rev: 18507
Checksum: 273
Satellite: UO-11
Catalog number: 14781
Epoch time: 08024.19695841
Element set: 578
Inclination: 098.1716 deg
RA of node: 055.9317 deg
Eccentricity: 0.0009131
Arg of perigee: 174.1829 deg
Mean anomaly: 185.9490 deg
Mean motion: 14.79614008 rev/day
Decay rate: 3.73e-06 rev/day^2
Epoch rev: 28241
Checksum: 324
Satellite: RS-15
Catalog number: 23439
Epoch time: 08023.91400468
Element set: 0111
Inclination: 064.8182 deg
RA of node: 009.9674 deg
Eccentricity: 0.0151468
Arg of perigee: 150.4148 deg
Mean anomaly: 210.5451 deg
Mean motion: 11.27551795 rev/day
Decay rate: -3.9e-07 rev/day^2
Epoch rev: 53858
Checksum: 301
Satellite: FO-29
Catalog number: 24278
Epoch time: 08024.54391470
Element set: 690
Inclination: 098.5808 deg
RA of node: 319.7761 deg
Eccentricity: 0.0349957
Arg of perigee: 229.8831 deg
Mean anomaly: 127.1155 deg
Mean motion: 13.52934687 rev/day
Decay rate: -5.9e-07 rev/day^2
Epoch rev: 56483
Checksum: 360
Satellite: SO-33
Catalog number: 25509
Epoch time: 08024.42910992
Element set: 117
Inclination: 031.4311 deg
RA of node: 054.8470 deg
Eccentricity: 0.0353758
Arg of perigee: 201.5539 deg
Mean anomaly: 156.9852 deg
Mean motion: 14.28196931 rev/day
Decay rate: 4.43e-06 rev/day^2
Epoch rev: 48290
Checksum: 307
Satellite: AO-40
Catalog number: 26609
Epoch time: 08022.30483958
Element set: 999
Inclination: 007.3273 deg
RA of node: 101.2332 deg
Eccentricity: 0.7928087
Arg of perigee: 044.3127 deg
Mean anomaly: 356.2712 deg
Mean motion: 01.25581889 rev/day
Decay rate: -4.10e-06 rev/day^2
Epoch rev: 3319
Checksum: 307
Satellite: VO-52
Catalog number: 28650
Epoch time: 08024.32381648
Element set: 838
Inclination: 097.8082 deg
RA of node: 094.7981 deg
Eccentricity: 0.0026086
Arg of perigee: 252.5295 deg
Mean anomaly: 107.3029 deg
Mean motion: 14.81412216 rev/day
Decay rate: -2.0e-07 rev/day^2
Epoch rev: 14715
Checksum: 304
Satellite: PO-63
Catalog number: 29712
Epoch time: 08024.75304218
Element set: 126
Inclination: 097.8951 deg
RA of node: 085.5428 deg
Eccentricity: 0.0015061
Arg of perigee: 128.0778 deg
Mean anomaly: 232.1784 deg
Mean motion: 14.79997288 rev/day
Decay rate: 5.52e-06 rev/day^2
Epoch rev: 5610
Checksum: 325
/EX
SB KEPS @ AMSAT $ORB08024.D
Orbital Elements 08024.MICROS
HR AMSAT ORBITAL ELEMENTS FOR THE MICROSATS
FROM WA5QGD FORT WORTH,TX January 24, 2008
Send Subscribe/unsubscribe to KEPS at
http://www.amsat.org/mailman/listinfo/keps
BID: ORB08024.D
TO ALL RADIO AMATEURS BT
Satellite: AO-16
Catalog number: 20439
Epoch time: 08024.06348583
Element set: 235
Inclination: 098.2145 deg
RA of node: 011.6580 deg
Eccentricity: 0.0009961
Arg of perigee: 249.0648 deg
Mean anomaly: 110.9482 deg
Mean motion: 14.31782536 rev/day
Decay rate: 1.7e-07 rev/day^2
Epoch rev: 94015
Checksum: 297
Satellite: LO-19
Catalog number: 20442
Epoch time: 08024.06503961
Element set: 158
Inclination: 098.1912 deg
RA of node: 020.5967 deg
Eccentricity: 0.0011084
Arg of perigee: 245.1244 deg
Mean anomaly: 114.8783 deg
Mean motion: 14.32021214 rev/day
Decay rate: -8.7e-07 rev/day^2
Epoch rev: 94030
Checksum: 270
Satellite: AO-27
Catalog number: 22825
Epoch time: 08024.00479406
Element set: 881
Inclination: 098.3635 deg
RA of node: 349.6253 deg
Eccentricity: 0.0008378
Arg of perigee: 336.4256 deg
Mean anomaly: 023.6532 deg
Mean motion: 14.29228459 rev/day
Decay rate: -6.4e-07 rev/day^2
Epoch rev: 74703
Checksum: 320
Satellite: IO-26
Catalog number: 22826
Epoch time: 08024.01401989
Element set: 583
Inclination: 098.3560 deg
RA of node: 350.6105 deg
Eccentricity: 0.0008619
Arg of perigee: 332.4326 deg
Mean anomaly: 027.6402 deg
Mean motion: 14.29476386 rev/day
Decay rate: -.00000000 rev/day^2
Epoch rev: 74712
Checksum: 284
Satellite: PO-28
Catalog number: 22829
Epoch time: 08023.86179389
Element set: 857
Inclination: 098.3447 deg
RA of node: 351.5945 deg
Eccentricity: 0.0009111
Arg of perigee: 303.6107 deg
Mean anomaly: 056.4203 deg
Mean motion: 14.30178599 rev/day
Decay rate: -1.0e-08 rev/day^2
Epoch rev: 74735
Checksum: 323
Satellite: GO-32
Catalog number: 25397
Epoch time: 08024.13706236
Element set: 508
Inclination: 098.3858 deg
RA of node: 066.3241 deg
Eccentricity: 0.0000664
Arg of perigee: 352.7890 deg
Mean anomaly: 007.3263 deg
Mean motion: 14.23138174 rev/day
Decay rate: 1.17e-06 rev/day^2
Epoch rev: 49558
Checksum: 304
Satellite: MO-46
Catalog number: 26548
Epoch time: 08024.00470672
Element set: 5
Inclination: 064.5543 deg
RA of node: 219.4960 deg
Eccentricity: 0.0012661
Arg of perigee: 343.8458 deg
Mean anomaly: 016.2235 deg
Mean motion: 14.83221616 rev/day
Decay rate: 6.3e-07 rev/day^2
Epoch rev: 39628
Checksum: 290
Satellite: NO-44
Catalog number: 26931
Epoch time: 08024.03936190
Element set: 788
Inclination: 067.0544 deg
RA of node: 298.5723 deg
Eccentricity: 0.0004756
Arg of perigee: 270.0619 deg
Mean anomaly: 089.9930 deg
Mean motion: 14.29510030 rev/day
Decay rate: 6.7e-07 rev/day^2
Epoch rev: 32966
Checksum: 319
Satellite: SO-50
Catalog number: 27607
Epoch time: 08024.57288348
Element set: 512
Inclination: 064.5593 deg
RA of node: 132.8138 deg
Eccentricity: 0.0078148
Arg of perigee: 308.2235 deg
Mean anomaly: 051.1837 deg
Mean motion: 14.71321195 rev/day
Decay rate: -3.3e-07 rev/day^2
Epoch rev: 27369
Checksum: 307
Satellite: CO-55
Catalog number: 27844
Epoch time: 08024.27237116
Element set: 219
Inclination: 098.7181 deg
RA of node: 034.5384 deg
Eccentricity: 0.0009860
Arg of perigee: 169.7706 deg
Mean anomaly: 190.3694 deg
Mean motion: 14.20556485 rev/day
Decay rate: 5.0e-07 rev/day^2
Epoch rev: 23686
Checksum: 323
Satellite: CO-57
Catalog number: 27848
Epoch time: 08024.03980371
Element set: 174
Inclination: 098.7178 deg
RA of node: 033.4362 deg
Eccentricity: 0.0009523
Arg of perigee: 174.5064 deg
Mean anomaly: 185.6212 deg
Mean motion: 14.20369620 rev/day
Decay rate: 6.6e-07 rev/day^2
Epoch rev: 23680
Checksum: 305
Satellite: AO-51
Catalog number: 28375
Epoch time: 08024.16334624
Element set: 14
Inclination: 098.0868 deg
RA of node: 056.7785 deg
Eccentricity: 0.0083024
Arg of perigee: 232.8417 deg
Mean anomaly: 126.5166 deg
Mean motion: 14.40594707 rev/day
Decay rate: 7.0e-08 rev/day^2
Epoch rev: 18752
Checksum: 310
Satellite: CO-56
Catalog number: 28941
Epoch time: 08024.81637952
Element set: 786
Inclination: 098.1067 deg
RA of node: 116.7822 deg
Eccentricity: 0.0193196
Arg of perigee: 202.6450 deg
Mean anomaly: 156.6278 deg
Mean motion: 15.48924939 rev/day
Decay rate: 2.1780e-04 rev/day^2
Epoch rev: 10763
Checksum: 349
Satellite: HO-59
Catalog number: 29484
Epoch time: 08024.81997618
Element set: 66
Inclination: 098.2556 deg
RA of node: 116.1740 deg
Eccentricity: 0.0138586
Arg of perigee: 179.8850 deg
Mean anomaly: 180.2287 deg
Mean motion: 15.71755703 rev/day
Decay rate: 6.5597e-04 rev/day^2
Epoch rev: 7563
Checksum: 370
Satellite: NO-61
Catalog number: 29664
Epoch time: 07359.16654419
Element set: 738
Inclination: 051.6179 deg
RA of node: 150.0690 deg
Eccentricity: 0.0003189
Arg of perigee: 248.8461 deg
Mean anomaly: 111.8136 deg
Mean motion: 16.51627846 rev/day
Decay rate: 1.4620719e-01 rev/day^2
Epoch rev: 5877
Checksum: 345
Satellite: CP4
Catalog number: 31122
Epoch time: 08024.27589392
Element set: 244
Inclination: 098.0599 deg
RA of node: 095.1327 deg
Eccentricity: 0.0086582
Arg of perigee: 059.5834 deg
Mean anomaly: 301.3815 deg
Mean motion: 14.55079769 rev/day
Decay rate: 5.51e-06 rev/day^2
Epoch rev: 4100
Checksum: 311
Satellite: CP3
Catalog number: 31128
Epoch time: 08024.13243379
Element set: 239
Inclination: 098.0583 deg
RA of node: 093.5835 deg
Eccentricity: 0.0103776
Arg of perigee: 063.6463 deg
Mean anomaly: 297.5373 deg
Mean motion: 14.51907235 rev/day
Decay rate: -4.6e-07 rev/day^2
Epoch rev: 4088
Checksum: 310
Satellite: LIBERT
Catalog number: 31129
Epoch time: 08024.66663921
Element set: 697
Inclination: 098.0586 deg
RA of node: 094.1250 deg
Eccentricity: 0.0103435
Arg of perigee: 061.9602 deg
Mean anomaly: 299.1988 deg
Mean motion: 14.51998234 rev/day
Decay rate: 3.39e-06 rev/day^2
Epoch rev: 4094
Checksum: 321
/EX
SB KEPS @ AMSAT $ORB08024.W
Orbital Elements 08024.WEATHER
HR AMSAT ORBITAL ELEMENTS FOR WEATHER SATELLITES
FROM WA5QGD FORT WORTH,TX January 24, 2008
Send Subscribe/unsubscribe to KEPS at
http://www.amsat.org/mailman/listinfo/keps
BID: ORB08024.W
TO ALL RADIO AMATEURS BT
Satellite: NOAA-10
Catalog number: 16969
Epoch time: 08024.46946373
Element set: 977
Inclination: 098.7335 deg
RA of node: 046.6455 deg
Eccentricity: 0.0011639
Arg of perigee: 242.0236 deg
Mean anomaly: 117.9761 deg
Mean motion: 14.27348359 rev/day
Decay rate: -2.4e-07 rev/day^2
Epoch rev: 11079
Checksum: 329
Satellite: NOAA-11
Catalog number: 19531
Epoch time: 08024.26750638
Element set: 12
Inclination: 098.8028 deg
RA of node: 115.6091 deg
Eccentricity: 0.0012130
Arg of perigee: 119.1533 deg
Mean anomaly: 241.0842 deg
Mean motion: 14.14862758 rev/day
Decay rate: -2.20e-06 rev/day^2
Epoch rev: 99741
Checksum: 275
